When you browse on this site, cookies collect data to enhance your experience and personalize the content and advertising you see.
Visit our Privacy Policy to learn more. By continuing to use the site, you agree to this use of cookies and data.
  • en Suisse
  • Liste des pays
  • À 7 jours
  • Température de l'eau
  • Carte météo
  • Widgets météo
  • user-avatar
    Se connecter

    Météo par heure à Oulu

    Ce jour, 3 Juin, Mercredi

    Heure Température Précipitation Vent Pression Humidité
    00:00 +10°C° 0 mm 3 m/s 760 mmHg 75%
    01:00 +10°C° 0 mm 3 m/s 760 mmHg 73%
    02:00 +11°C° 0 mm 3 m/s 761 mmHg 72%
    03:00 +11°C° 0 mm 3 m/s 760 mmHg 72%
    04:00 +11°C° 0 mm 3 m/s 760 mmHg 71%
    05:00 +12°C° 0 mm 3 m/s 759 mmHg 71%
    06:00 +13°C° 0 mm 3 m/s 759 mmHg 67%
    07:00 +16°C° 0 mm 3 m/s 759 mmHg 62%
    08:00 +17°C° 0 mm 2 m/s 760 mmHg 58%
    09:00 +17°C° 0 mm 3 m/s 759 mmHg 58%
    10:00 +17°C° 0 mm 3 m/s 759 mmHg 59%
    11:00 +17°C° 0 mm 3 m/s 759 mmHg 60%
    12:00 +17°C° 0 mm 3 m/s 759 mmHg 58%
    13:00 +17°C° 0 mm 3 m/s 759 mmHg 56%
    14:00 +17°C° 0 mm 3 m/s 759 mmHg 54%
    15:00 +17°C° 0 mm 2 m/s 759 mmHg 53%
    16:00 +17°C° 0 mm 2 m/s 758 mmHg 51%
    17:00 +17°C° 0 mm 2 m/s 758 mmHg 50%
    18:00 +16°C° 0 mm 1 m/s 758 mmHg 53%
    19:00 +16°C° 0 mm 1 m/s 758 mmHg 56%
    20:00 +15°C° 0 mm 1 m/s 758 mmHg 59%
    21:00 +14°C° 0 mm 1 m/s 758 mmHg 62%
    22:00 +13°C° 0 mm 2 m/s 758 mmHg 66%
    23:00 +13°C° 0 mm 2 m/s 758 mmHg 70%

    Demain, 4 Juin, Jeudi

    Heure Température Précipitation Vent Pression Humidité
    00:00 +13°C° 0 mm 2 m/s 758 mmHg 67%
    01:00 +12°C° 0 mm 3 m/s 758 mmHg 63%
    02:00 +12°C° 0 mm 3 m/s 758 mmHg 60%
    03:00 +12°C° 0 mm 3 m/s 758 mmHg 59%
    04:00 +12°C° 0 mm 3 m/s 758 mmHg 58%
    05:00 +12°C° 0 mm 3 m/s 758 mmHg 57%
    06:00 +13°C° 0 mm 3 m/s 757 mmHg 52%
    07:00 +16°C° 0 mm 3 m/s 757 mmHg 47%
    08:00 +17°C° 0 mm 2 m/s 757 mmHg 43%
    09:00 +18°C° 0 mm 2 m/s 757 mmHg 40%
    10:00 +19°C° 0 mm 2 m/s 757 mmHg 38%
    11:00 +20°C° 0 mm 2 m/s 756 mmHg 36%
    12:00 +20°C° 0 mm 2 m/s 756 mmHg 35%
    13:00 +21°C° 0 mm 2 m/s 756 mmHg 33%
    14:00 +21°C° 0 mm 2 m/s 756 mmHg 32%
    15:00 +21°C° 0 mm 3 m/s 755 mmHg 34%
    16:00 +21°C° 0 mm 3 m/s 755 mmHg 35%
    17:00 +21°C° 0 mm 3 m/s 754 mmHg 36%
    18:00 +20°C° 0 mm 3 m/s 754 mmHg 42%
    19:00 +18°C° 0 mm 3 m/s 754 mmHg 47%
    20:00 +17°C° 0 mm 3 m/s 754 mmHg 52%
    21:00 +16°C° 0.1 mm 3 m/s 753 mmHg 60%
    22:00 +16°C° 0.1 mm 3 m/s 753 mmHg 67%
    23:00 +14°C° 0.1 mm 3 m/s 753 mmHg 74%

    Après-demain, 5 Juin, Vendredi

    Heure Température Précipitation Vent Pression Humidité
    00:00 +13°C° 0.2 mm 4 m/s 753 mmHg 78%
    01:00 +13°C° 0.2 mm 4 m/s 752 mmHg 81%
    02:00 +12°C° 0.2 mm 5 m/s 752 mmHg 85%
    03:00 +12°C° 0.4 mm 5 m/s 752 mmHg 86%
    04:00 +12°C° 0.4 mm 5 m/s 751 mmHg 88%
    05:00 +12°C° 0.4 mm 5 m/s 751 mmHg 90%
    06:00 +13°C° 0.2 mm 5 m/s 751 mmHg 87%
    07:00 +14°C° 0.2 mm 5 m/s 751 mmHg 85%
    08:00 +15°C° 0.2 mm 5 m/s 751 mmHg 83%
    09:00 +15°C° 0.1 mm 5 m/s 751 mmHg 79%
    10:00 +15°C° 0.1 mm 5 m/s 751 mmHg 75%
    11:00 +15°C° 0.1 mm 5 m/s 751 mmHg 71%
    12:00 +16°C° 0 mm 5 m/s 751 mmHg 67%
    13:00 +17°C° 0 mm 4 m/s 751 mmHg 64%
    14:00 +18°C° 0 mm 4 m/s 751 mmHg 61%
    15:00 +19°C° 0 mm 3 m/s 751 mmHg 59%
    16:00 +20°C° 0 mm 3 m/s 751 mmHg 57%
    17:00 +20°C° 0 mm 2 m/s 751 mmHg 55%
    18:00 +19°C° 0.1 mm 2 m/s 751 mmHg 61%
    19:00 +19°C° 0.1 mm 2 m/s 751 mmHg 67%
    20:00 +18°C° 0.1 mm 3 m/s 752 mmHg 72%
    21:00 +17°C° 0.2 mm 3 m/s 752 mmHg 79%
    22:00 +14°C° 0.2 mm 3 m/s 752 mmHg 85%
    23:00 +13°C° 0.2 mm 3 m/s 752 mmHg 92%

    6 Juin, Samedi

    Heure Température Précipitation Vent Pression Humidité
    00:00 +12°C° 0 mm 3 m/s 752 mmHg 93%
    01:00 +12°C° 0 mm 3 m/s 752 mmHg 94%
    02:00 +11°C° 0 mm 3 m/s 752 mmHg 96%
    03:00 +12°C° 0 mm 3 m/s 752 mmHg 92%
    04:00 +12°C° 0 mm 3 m/s 752 mmHg 89%
    05:00 +13°C° 0 mm 3 m/s 751 mmHg 85%
    06:00 +16°C° 0 mm 3 m/s 751 mmHg 79%
    07:00 +17°C° 0 mm 3 m/s 751 mmHg 72%
    08:00 +18°C° 0 mm 3 m/s 751 mmHg 65%
    09:00 +20°C° 0 mm 3 m/s 750 mmHg 60%
    10:00 +21°C° 0 mm 3 m/s 750 mmHg 54%
    11:00 +22°C° 0 mm 3 m/s 750 mmHg 49%
    12:00 +22°C° 0 mm 3 m/s 749 mmHg 46%
    13:00 +24°C° 0 mm 3 m/s 749 mmHg 43%
    14:00 +25°C° 0 mm 3 m/s 748 mmHg 40%
    15:00 +24°C° 0 mm 3 m/s 748 mmHg 42%
    16:00 +23°C° 0 mm 4 m/s 747 mmHg 45%
    17:00 +22°C° 0 mm 4 m/s 747 mmHg 47%
    18:00 +22°C° 0 mm 4 m/s 746 mmHg 50%
    19:00 +21°C° 0 mm 4 m/s 746 mmHg 52%
    20:00 +21°C° 0 mm 4 m/s 746 mmHg 55%
    21:00 +19°C° 0 mm 4 m/s 746 mmHg 61%
    22:00 +17°C° 0 mm 4 m/s 747 mmHg 66%
    23:00 +14°C° 0 mm 4 m/s 747 mmHg 72%

    7 Juin, Dimanche

    Heure Température Précipitation Vent Pression Humidité
    00:00 +13°C° 0.9 mm 4 m/s 747 mmHg 79%
    01:00 +12°C° 0.9 mm 4 m/s 748 mmHg 86%
    02:00 +11°C° 0.9 mm 3 m/s 748 mmHg 93%
    03:00 +10°C° 0.1 mm 4 m/s 748 mmHg 92%
    04:00 +9°C° 0.1 mm 5 m/s 749 mmHg 90%
    05:00 +9°C° 0.1 mm 6 m/s 749 mmHg 88%
    06:00 +9°C° 0.1 mm 6 m/s 749 mmHg 85%
    07:00 +9°C° 0.1 mm 6 m/s 750 mmHg 82%
    08:00 +10°C° 0.1 mm 6 m/s 750 mmHg 80%
    09:00 +10°C° 0.4 mm 7 m/s 750 mmHg 79%
    10:00 +10°C° 0.4 mm 7 m/s 751 mmHg 79%
    11:00 +10°C° 0.4 mm 7 m/s 751 mmHg 78%
    12:00 +10°C° 0.3 mm 7 m/s 751 mmHg 79%
    13:00 +10°C° 0.3 mm 7 m/s 752 mmHg 81%
    14:00 +11°C° 0.3 mm 6 m/s 752 mmHg 82%
    15:00 +11°C° 0.1 mm 7 m/s 752 mmHg 77%
    16:00 +12°C° 0.1 mm 7 m/s 753 mmHg 72%
    17:00 +12°C° 0.1 mm 7 m/s 753 mmHg 67%
    18:00 +12°C° 0 mm 7 m/s 753 mmHg 66%
    19:00 +12°C° 0 mm 7 m/s 754 mmHg 66%
    20:00 +13°C° 0 mm 6 m/s 754 mmHg 66%
    21:00 +11°C° 0 mm 6 m/s 754 mmHg 69%
    22:00 +11°C° 0 mm 6 m/s 755 mmHg 72%
    23:00 +10°C° 0 mm 5 m/s 755 mmHg 75%

    8 Juin, Lundi

    Heure Température Précipitation Vent Pression Humidité
    00:00 +10°C° 0 mm 6 m/s 756 mmHg 76%
    01:00 +9°C° 0 mm 6 m/s 756 mmHg 76%
    02:00 +9°C° 0 mm 6 m/s 756 mmHg 77%
    03:00 +10°C° 0 mm 6 m/s 756 mmHg 75%
    04:00 +10°C° 0 mm 6 m/s 757 mmHg 74%
    05:00 +10°C° 0 mm 5 m/s 757 mmHg 72%
    06:00 +13°C° 0 mm 5 m/s 757 mmHg 69%
    07:00 +14°C° 0 mm 5 m/s 758 mmHg 65%
    08:00 +15°C° 0 mm 5 m/s 758 mmHg 61%
    09:00 +16°C° 0 mm 6 m/s 758 mmHg 58%
    10:00 +17°C° 0 mm 6 m/s 759 mmHg 55%
    11:00 +19°C° 0 mm 6 m/s 759 mmHg 51%
    12:00 +19°C° 0 mm 6 m/s 759 mmHg 51%
    13:00 +19°C° 0 mm 6 m/s 760 mmHg 51%
    14:00 +19°C° 0 mm 6 m/s 760 mmHg 50%
    15:00 +19°C° 0 mm 5 m/s 760 mmHg 51%
    16:00 +19°C° 0 mm 5 m/s 760 mmHg 53%
    17:00 +19°C° 0 mm 5 m/s 760 mmHg 54%
    18:00 +18°C° 0 mm 4 m/s 760 mmHg 57%
    19:00 +17°C° 0 mm 4 m/s 761 mmHg 59%
    20:00 +16°C° 0 mm 3 m/s 761 mmHg 62%
    21:00 +14°C° 0 mm 3 m/s 761 mmHg 67%
    22:00 +12°C° 0 mm 3 m/s 761 mmHg 71%
    23:00 +12°C° 0 mm 2 m/s 762 mmHg 76%
    Voir plus